Location: Kellogg
(38.0159°N, 90.0546°W)
Time: 15:10:40
(UTC+00:00)

Altair - Pass Details

Date: 16 September 2024
Orbit: 1501 x 1682 km, 47.2° (Epoch: 15 October)

Event Time Altitude Azimuth Distance (km) Brightness Sun altitude
Exits shadow 07:19:17 42° 85° (E) 2,250 8.4 -45.1°
Drops below altitude 10° 07:25:44 10° 63° (ENE) 3,944 10.1 -44.5°
Sets 07:28:59 0° 59° (ENE) 4,939 10.8 -44.1°
